Year,Month,Day,Hour,Minute,Value (Times are PST for windgust in km/hr)
2008,02,05,00,00,17.70
2008,02,05,00,01,20.90
2008,02,05,00,02,19.30
2008,02,05,00,03,24.20
2008,02,05,00,04,22.50
2008,02,05,00,05,19.30
2008,02,05,00,06,25.70
2008,02,05,00,07,24.20
2008,02,05,00,08,27.40
2008,02,05,00,09,24.20
2008,02,05,00,10,27.40
2008,02,05,00,11,33.80
2008,02,05,00,12,27.40
2008,02,05,00,13,27.40
2008,02,05,00,14,27.40
2008,02,05,00,15,24.20
2008,02,05,00,16,22.50
2008,02,05,00,17,20.90
2008,02,05,00,18,25.70
2008,02,05,00,19,17.70
2008,02,05,00,20,27.40
2008,02,05,00,21,22.50
2008,02,05,00,22,19.30
2008,02,05,00,23,19.30
2008,02,05,00,24,22.50
2008,02,05,00,25,29.00
2008,02,05,00,26,37.00
2008,02,05,00,27,29.00
2008,02,05,00,28,25.70
2008,02,05,00,29,33.80
2008,02,05,00,30,24.20
2008,02,05,00,31,27.40
2008,02,05,00,32,29.00
2008,02,05,00,33,29.00
2008,02,05,00,34,19.30
2008,02,05,00,35,25.70
2008,02,05,00,36,16.10
2008,02,05,00,37,24.20
2008,02,05,00,38,25.70
2008,02,05,00,39,25.70
2008,02,05,00,40,22.50
2008,02,05,00,41,22.50
2008,02,05,00,42,19.30
2008,02,05,00,43,19.30
2008,02,05,00,44,35.40
2008,02,05,00,45,32.20
2008,02,05,00,46,24.20
2008,02,05,00,47,17.70
2008,02,05,00,48,29.00
2008,02,05,00,49,19.30
2008,02,05,00,50,25.70
2008,02,05,00,51,30.60
2008,02,05,00,52,24.20
2008,02,05,00,53,22.50
2008,02,05,00,54,29.00
2008,02,05,00,55,24.20
2008,02,05,00,56,24.20
2008,02,05,00,57,19.30
2008,02,05,00,58,24.20
2008,02,05,00,59,29.00
2008,02,05,01,00,25.70
2008,02,05,01,01,25.70
2008,02,05,01,02,24.20
2008,02,05,01,03,17.70
2008,02,05,01,04,27.40
2008,02,05,01,05,19.30
2008,02,05,01,06,25.70
2008,02,05,01,07,19.30
2008,02,05,01,08,22.50
2008,02,05,01,09,22.50
2008,02,05,01,10,25.70
2008,02,05,01,11,24.20
2008,02,05,01,12,20.90
2008,02,05,01,13,22.50
2008,02,05,01,14,22.50
2008,02,05,01,15,33.80
2008,02,05,01,16,29.00
2008,02,05,01,17,25.70
2008,02,05,01,18,20.90
2008,02,05,01,19,25.70
2008,02,05,01,20,25.70
2008,02,05,01,21,29.00
2008,02,05,01,22,27.40
2008,02,05,01,23,38.60
2008,02,05,01,24,30.60
2008,02,05,01,25,24.20
2008,02,05,01,26,33.80
2008,02,05,01,27,30.60
2008,02,05,01,28,20.90
2008,02,05,01,29,20.90
2008,02,05,01,30,29.00
2008,02,05,01,31,35.40
2008,02,05,01,32,32.20
2008,02,05,01,33,27.40
2008,02,05,01,34,32.20
2008,02,05,01,35,30.60
2008,02,05,01,36,22.50
2008,02,05,01,37,25.70
2008,02,05,01,38,24.20
2008,02,05,01,39,32.20
2008,02,05,01,40,27.40
2008,02,05,01,41,32.20
2008,02,05,01,42,19.30
2008,02,05,01,43,25.70
2008,02,05,01,44,30.60
2008,02,05,01,45,30.60
2008,02,05,01,46,30.60
2008,02,05,01,47,32.20
2008,02,05,01,48,27.40
2008,02,05,01,49,27.40
2008,02,05,01,50,17.70
2008,02,05,01,51,27.40
2008,02,05,01,52,22.50
2008,02,05,01,53,29.00
2008,02,05,01,54,20.90
2008,02,05,01,55,29.00
2008,02,05,01,56,33.80
2008,02,05,01,57,25.70
2008,02,05,01,58,29.00
2008,02,05,01,59,16.10
2008,02,05,02,00,35.40
2008,02,05,02,01,29.00
2008,02,05,02,02,30.60
2008,02,05,02,03,29.00
2008,02,05,02,04,24.20
2008,02,05,02,05,25.70
2008,02,05,02,06,29.00
2008,02,05,02,07,29.00
2008,02,05,02,08,24.20
2008,02,05,02,09,27.40
2008,02,05,02,10,29.00
2008,02,05,02,11,22.50
2008,02,05,02,12,17.70
2008,02,05,02,13,32.20
2008,02,05,02,14,25.70
2008,02,05,02,15,22.50
2008,02,05,02,16,19.30
2008,02,05,02,17,24.20
2008,02,05,02,18,25.70
2008,02,05,02,19,32.20
2008,02,05,02,20,37.00
2008,02,05,02,21,25.70
2008,02,05,02,22,29.00
2008,02,05,02,23,32.20
2008,02,05,02,24,27.40
2008,02,05,02,25,25.70
2008,02,05,02,26,30.60
2008,02,05,02,27,22.50
2008,02,05,02,28,29.00
2008,02,05,02,29,24.20
2008,02,05,02,30,22.50
2008,02,05,02,31,22.50
2008,02,05,02,32,29.00
2008,02,05,02,33,24.20
2008,02,05,02,34,27.40
2008,02,05,02,35,38.60
2008,02,05,02,36,37.00
2008,02,05,02,37,22.50
2008,02,05,02,38,30.60
2008,02,05,02,39,25.70
2008,02,05,02,40,32.20
2008,02,05,02,41,27.40
2008,02,05,02,42,30.60
2008,02,05,02,43,32.20
2008,02,05,02,44,30.60
2008,02,05,02,45,20.90
2008,02,05,02,46,30.60
2008,02,05,02,47,22.50
2008,02,05,02,48,35.40
2008,02,05,02,49,27.40
2008,02,05,02,50,30.60
2008,02,05,02,51,29.00
2008,02,05,02,52,22.50
2008,02,05,02,53,38.60
2008,02,05,02,54,35.40
2008,02,05,02,55,30.60
2008,02,05,02,56,35.40
2008,02,05,02,57,27.40
2008,02,05,02,58,27.40
2008,02,05,02,59,29.00
2008,02,05,03,00,17.70
2008,02,05,03,01,27.40
2008,02,05,03,02,29.00
2008,02,05,03,03,20.90
2008,02,05,03,04,29.00
2008,02,05,03,05,33.80
2008,02,05,03,06,20.90
2008,02,05,03,07,30.60
2008,02,05,03,08,22.50
2008,02,05,03,09,27.40
2008,02,05,03,10,22.50
2008,02,05,03,11,19.30
2008,02,05,03,12,30.60
2008,02,05,03,13,30.60
2008,02,05,03,14,29.00
2008,02,05,03,15,35.40
2008,02,05,03,16,29.00
2008,02,05,03,17,24.20
2008,02,05,03,18,20.90
2008,02,05,03,19,22.50
2008,02,05,03,20,25.70
2008,02,05,03,21,41.80
2008,02,05,03,22,22.50
2008,02,05,03,23,19.30
2008,02,05,03,24,22.50
2008,02,05,03,25,32.20
2008,02,05,03,26,30.60
2008,02,05,03,27,24.20
2008,02,05,03,28,19.30
2008,02,05,03,29,19.30
2008,02,05,03,30,25.70
2008,02,05,03,31,33.80
2008,02,05,03,32,38.60
2008,02,05,03,33,24.20
2008,02,05,03,34,35.40
2008,02,05,03,35,20.90
2008,02,05,03,36,27.40
2008,02,05,03,37,19.30
2008,02,05,03,38,38.60
2008,02,05,03,39,27.40
2008,02,05,03,40,25.70
2008,02,05,03,41,29.00
2008,02,05,03,42,29.00
2008,02,05,03,43,25.70
2008,02,05,03,44,32.20
2008,02,05,03,45,32.20
2008,02,05,03,46,27.40
2008,02,05,03,47,24.20
2008,02,05,03,48,27.40
2008,02,05,03,49,29.00
2008,02,05,03,50,30.60
2008,02,05,03,51,41.80
2008,02,05,03,52,30.60
2008,02,05,03,53,29.00
2008,02,05,03,54,22.50
2008,02,05,03,55,29.00
2008,02,05,03,56,30.60
2008,02,05,03,57,29.00
2008,02,05,03,58,29.00
2008,02,05,03,59,27.40
2008,02,05,04,00,24.20
2008,02,05,04,01,27.40
2008,02,05,04,02,27.40
2008,02,05,04,03,29.00
2008,02,05,04,04,29.00
2008,02,05,04,05,24.20
2008,02,05,04,06,30.60
2008,02,05,04,07,25.70
2008,02,05,04,08,24.20
2008,02,05,04,09,20.90
2008,02,05,04,10,35.40
2008,02,05,04,11,25.70
2008,02,05,04,12,30.60
2008,02,05,04,13,24.20
2008,02,05,04,14,29.00
2008,02,05,04,15,24.20
2008,02,05,04,16,30.60
2008,02,05,04,17,27.40
2008,02,05,04,18,22.50
2008,02,05,04,19,25.70
2008,02,05,04,20,20.90
2008,02,05,04,21,24.20
2008,02,05,04,22,20.90
2008,02,05,04,23,19.30
2008,02,05,04,24,27.40
2008,02,05,04,25,19.30
2008,02,05,04,26,25.70
2008,02,05,04,27,24.20
2008,02,05,04,28,22.50
2008,02,05,04,29,33.80
2008,02,05,04,30,25.70
2008,02,05,04,31,22.50
2008,02,05,04,32,25.70
2008,02,05,04,33,33.80
2008,02,05,04,34,30.60
2008,02,05,04,35,17.70
2008,02,05,04,36,35.40
2008,02,05,04,37,32.20
2008,02,05,04,38,25.70
2008,02,05,04,39,30.60
2008,02,05,04,40,19.30
2008,02,05,04,41,20.90
2008,02,05,04,42,22.50
2008,02,05,04,43,27.40
2008,02,05,04,44,29.00
2008,02,05,04,45,29.00
2008,02,05,04,46,27.40
2008,02,05,04,47,20.90
2008,02,05,04,48,32.20
2008,02,05,04,49,27.40
2008,02,05,04,50,22.50
2008,02,05,04,51,25.70
2008,02,05,04,52,22.50
2008,02,05,04,53,25.70
2008,02,05,04,54,33.80
2008,02,05,04,55,20.90
2008,02,05,04,56,20.90
2008,02,05,04,57,20.90
2008,02,05,04,58,25.70
2008,02,05,04,59,30.60
2008,02,05,05,00,24.20
2008,02,05,05,01,17.70
2008,02,05,05,02,24.20
2008,02,05,05,03,20.90
2008,02,05,05,04,22.50
2008,02,05,05,05,24.20
2008,02,05,05,06,25.70
2008,02,05,05,07,29.00
2008,02,05,05,08,20.90
2008,02,05,05,09,27.40
2008,02,05,05,10,17.70
2008,02,05,05,11,24.20
2008,02,05,05,12,30.60
2008,02,05,05,13,25.70
2008,02,05,05,14,19.30
2008,02,05,05,15,20.90
2008,02,05,05,16,11.30
2008,02,05,05,17,9.60
2008,02,05,05,18,16.10
2008,02,05,05,19,25.70
2008,02,05,05,20,29.00
2008,02,05,05,21,24.20
2008,02,05,05,22,24.20
2008,02,05,05,23,20.90
2008,02,05,05,24,20.90
2008,02,05,05,25,20.90
2008,02,05,05,26,20.90
2008,02,05,05,27,16.10
2008,02,05,05,28,20.90
2008,02,05,05,29,12.90
2008,02,05,05,30,19.30
2008,02,05,05,31,19.30
2008,02,05,05,32,22.50
2008,02,05,05,33,22.50
2008,02,05,05,34,24.20
2008,02,05,05,35,22.50
2008,02,05,05,36,24.20
2008,02,05,05,37,19.30
2008,02,05,05,38,24.20
2008,02,05,05,39,29.00
2008,02,05,05,40,24.20
2008,02,05,05,41,30.60
2008,02,05,05,42,29.00
2008,02,05,05,43,29.00
2008,02,05,05,44,29.00
2008,02,05,05,45,29.00
2008,02,05,05,46,33.80
2008,02,05,05,47,29.00
2008,02,05,05,48,22.50
2008,02,05,05,49,19.30
2008,02,05,05,50,24.20
2008,02,05,05,51,25.70
2008,02,05,05,52,25.70
2008,02,05,05,53,19.30
2008,02,05,05,54,20.90
2008,02,05,05,55,25.70
2008,02,05,05,56,32.20
2008,02,05,05,57,24.20
2008,02,05,05,58,12.90
2008,02,05,05,59,17.70
2008,02,05,06,00,29.00
2008,02,05,06,01,29.00
2008,02,05,06,02,33.80
2008,02,05,06,03,35.40
2008,02,05,06,04,24.20
2008,02,05,06,05,22.50
2008,02,05,06,06,29.00
2008,02,05,06,07,33.80
2008,02,05,06,08,30.60
2008,02,05,06,09,22.50
2008,02,05,06,10,25.70
2008,02,05,06,11,32.20
2008,02,05,06,12,27.40
2008,02,05,06,13,41.80
2008,02,05,06,14,33.80
2008,02,05,06,15,20.90
2008,02,05,06,16,37.00
2008,02,05,06,17,35.40
2008,02,05,06,18,37.00
2008,02,05,06,19,29.00
2008,02,05,06,20,30.60
2008,02,05,06,21,35.40
2008,02,05,06,22,32.20
2008,02,05,06,23,27.40
2008,02,05,06,24,32.20
2008,02,05,06,25,38.60
2008,02,05,06,26,30.60
2008,02,05,06,27,33.80
2008,02,05,06,28,25.70
2008,02,05,06,29,30.60
2008,02,05,06,30,35.40
2008,02,05,06,31,30.60
2008,02,05,06,32,27.40
2008,02,05,06,33,32.20
2008,02,05,06,34,41.80
2008,02,05,06,35,27.40
2008,02,05,06,36,30.60
2008,02,05,06,37,32.20
2008,02,05,06,38,22.50
2008,02,05,06,39,30.60
2008,02,05,06,40,27.40
2008,02,05,06,41,27.40
2008,02,05,06,42,24.20
2008,02,05,06,43,43.50
2008,02,05,06,44,33.80
2008,02,05,06,45,32.20
2008,02,05,06,46,35.40
2008,02,05,06,47,30.60
2008,02,05,06,48,27.40
2008,02,05,06,49,16.10
2008,02,05,06,50,20.90
2008,02,05,06,51,29.00
2008,02,05,06,52,27.40
2008,02,05,06,53,25.70
2008,02,05,06,54,22.50
2008,02,05,06,55,37.00
2008,02,05,06,56,37.00
2008,02,05,06,57,37.00
2008,02,05,06,58,35.40
2008,02,05,06,59,40.20
2008,02,05,07,00,32.20
2008,02,05,07,01,29.00
2008,02,05,07,02,19.30
2008,02,05,07,03,33.80
2008,02,05,07,04,27.40
2008,02,05,07,05,22.50
2008,02,05,07,06,30.60
2008,02,05,07,07,22.50
2008,02,05,07,08,27.40
2008,02,05,07,09,24.20
2008,02,05,07,10,24.20
2008,02,05,07,11,19.30
2008,02,05,07,12,24.20
2008,02,05,07,13,33.80
2008,02,05,07,14,27.40
2008,02,05,07,15,17.70
2008,02,05,07,16,17.70
2008,02,05,07,17,27.40
2008,02,05,07,18,24.20
2008,02,05,07,19,35.40
2008,02,05,07,20,30.60
2008,02,05,07,21,33.80
2008,02,05,07,22,22.50
2008,02,05,07,23,30.60
2008,02,05,07,24,22.50
2008,02,05,07,25,24.20
2008,02,05,07,26,20.90
2008,02,05,07,27,19.30
2008,02,05,07,28,27.40
2008,02,05,07,29,25.70
2008,02,05,07,30,20.90
2008,02,05,07,31,22.50
2008,02,05,07,32,25.70
2008,02,05,07,33,29.00
2008,02,05,07,34,20.90
2008,02,05,07,35,24.20
2008,02,05,07,36,20.90
2008,02,05,07,37,20.90
2008,02,05,07,38,27.40
2008,02,05,07,39,30.60
2008,02,05,07,40,32.20
2008,02,05,07,41,20.90
2008,02,05,07,42,20.90
2008,02,05,07,43,24.20
2008,02,05,07,44,27.40
2008,02,05,07,45,22.50
2008,02,05,07,46,29.00
2008,02,05,07,47,24.20
2008,02,05,07,48,30.60
2008,02,05,07,49,22.50
2008,02,05,07,50,24.20
2008,02,05,07,51,22.50
2008,02,05,07,52,24.20
2008,02,05,07,53,25.70
2008,02,05,07,54,29.00
2008,02,05,07,55,35.40
2008,02,05,07,56,19.30
2008,02,05,07,57,32.20
2008,02,05,07,58,30.60
2008,02,05,07,59,27.40
2008,02,05,08,00,32.20
2008,02,05,08,01,24.20
2008,02,05,08,02,19.30
2008,02,05,08,03,19.30
2008,02,05,08,04,16.10
2008,02,05,08,05,19.30
2008,02,05,08,06,22.50
2008,02,05,08,07,29.00
2008,02,05,08,08,24.20
2008,02,05,08,09,14.50
2008,02,05,08,10,27.40
2008,02,05,08,11,29.00
2008,02,05,08,12,38.60
2008,02,05,08,13,24.20
2008,02,05,08,14,22.50
2008,02,05,08,15,24.20
2008,02,05,08,16,22.50
2008,02,05,08,17,32.20
2008,02,05,08,18,25.70
2008,02,05,08,19,25.70
2008,02,05,08,20,33.80
2008,02,05,08,21,25.70
2008,02,05,08,22,24.20
2008,02,05,08,23,24.20
2008,02,05,08,24,17.70
2008,02,05,08,25,20.90
2008,02,05,08,26,20.90
2008,02,05,08,27,37.00
2008,02,05,08,28,35.40
2008,02,05,08,29,25.70
2008,02,05,08,30,37.00
2008,02,05,08,31,35.40
2008,02,05,08,32,25.70
2008,02,05,08,33,17.70
2008,02,05,08,34,25.70
2008,02,05,08,35,25.70
2008,02,05,08,36,24.20
2008,02,05,08,37,27.40
2008,02,05,08,38,29.00
2008,02,05,08,39,24.20
2008,02,05,08,40,27.40
2008,02,05,08,41,33.80
2008,02,05,08,42,24.20
2008,02,05,08,43,30.60
2008,02,05,08,44,30.60
2008,02,05,08,45,33.80
2008,02,05,08,46,29.00
2008,02,05,08,47,33.80
2008,02,05,08,48,20.90
2008,02,05,08,49,19.30
2008,02,05,08,50,27.40
2008,02,05,08,51,30.60
2008,02,05,08,52,40.20
2008,02,05,08,53,35.40
2008,02,05,08,54,30.60
2008,02,05,08,55,22.50
2008,02,05,08,56,30.60
2008,02,05,08,57,25.70
2008,02,05,08,58,25.70
2008,02,05,08,59,30.60
2008,02,05,09,00,29.00
2008,02,05,09,01,30.60
2008,02,05,09,02,30.60
2008,02,05,09,03,22.50
2008,02,05,09,04,30.60
2008,02,05,09,05,35.40
2008,02,05,09,06,22.50
2008,02,05,09,07,27.40
2008,02,05,09,08,27.40
2008,02,05,09,09,19.30
2008,02,05,09,10,19.30
2008,02,05,09,11,30.60
2008,02,05,09,12,29.00
2008,02,05,09,13,32.20
2008,02,05,09,14,35.40
2008,02,05,09,15,24.20
2008,02,05,09,16,27.40
2008,02,05,09,17,19.30
2008,02,05,09,18,32.20
2008,02,05,09,19,20.90
2008,02,05,09,20,19.30
2008,02,05,09,21,27.40
2008,02,05,09,22,24.20
2008,02,05,09,23,29.00
2008,02,05,09,24,32.20
2008,02,05,09,25,29.00
2008,02,05,09,26,24.20
2008,02,05,09,27,25.70
2008,02,05,09,28,27.40
2008,02,05,09,29,19.30
2008,02,05,09,30,20.90
2008,02,05,09,31,29.00
2008,02,05,09,32,32.20
2008,02,05,09,33,22.50
2008,02,05,09,34,30.60
2008,02,05,09,35,17.70
2008,02,05,09,36,24.20
2008,02,05,09,37,37.00
2008,02,05,09,38,25.70
2008,02,05,09,39,29.00
2008,02,05,09,40,30.60
2008,02,05,09,41,38.60
2008,02,05,09,42,27.40
2008,02,05,09,43,20.90
2008,02,05,09,44,22.50
2008,02,05,09,45,22.50
2008,02,05,09,46,30.60
2008,02,05,09,47,30.60
2008,02,05,09,48,25.70
2008,02,05,09,49,25.70
2008,02,05,09,50,33.80
2008,02,05,09,51,22.50
2008,02,05,09,52,25.70
2008,02,05,09,53,27.40
2008,02,05,09,54,20.90
2008,02,05,09,55,20.90
2008,02,05,09,56,24.20
2008,02,05,09,57,25.70
2008,02,05,09,58,24.20
2008,02,05,09,59,22.50
2008,02,05,10,00,20.90
2008,02,05,10,01,19.30
2008,02,05,10,02,8.10
2008,02,05,10,03,11.30
2008,02,05,10,04,17.70
2008,02,05,10,05,19.30
2008,02,05,10,06,19.30
2008,02,05,10,07,24.20
2008,02,05,10,08,20.90
2008,02,05,10,09,9.60
2008,02,05,10,10,11.30
2008,02,05,10,11,8.10
2008,02,05,10,12,4.80
2008,02,05,10,13,9.60
2008,02,05,10,14,11.30
2008,02,05,10,15,9.60
2008,02,05,10,16,9.60
2008,02,05,10,17,11.30
2008,02,05,10,18,16.10
2008,02,05,10,19,17.70
2008,02,05,10,20,16.10
2008,02,05,10,21,12.90
2008,02,05,10,22,11.30
2008,02,05,10,23,12.90
2008,02,05,10,24,11.30
2008,02,05,10,25,9.60
2008,02,05,10,26,11.30
2008,02,05,10,27,14.50
2008,02,05,10,28,11.30
2008,02,05,10,29,11.30
2008,02,05,10,30,8.10
2008,02,05,10,31,8.10
2008,02,05,10,32,11.30
2008,02,05,10,33,6.40
2008,02,05,10,34,8.10
2008,02,05,10,35,9.60
2008,02,05,10,36,9.60
2008,02,05,10,37,9.60
2008,02,05,10,38,11.30
2008,02,05,10,39,11.30
2008,02,05,10,40,8.10
2008,02,05,10,41,9.60
2008,02,05,10,42,14.50
2008,02,05,10,43,14.50
2008,02,05,10,44,11.30
2008,02,05,10,45,20.90
2008,02,05,10,46,22.50
2008,02,05,10,47,14.50
2008,02,05,10,48,27.40
2008,02,05,10,49,20.90
2008,02,05,10,50,19.30
2008,02,05,10,51,16.10
2008,02,05,10,52,12.90
2008,02,05,10,53,8.10
2008,02,05,10,54,8.10
2008,02,05,10,55,14.50
2008,02,05,10,56,12.90
2008,02,05,10,57,6.40
2008,02,05,10,58,8.10
2008,02,05,10,59,6.40
2008,02,05,11,00,6.40
2008,02,05,11,01,11.30
2008,02,05,11,02,16.10
2008,02,05,11,03,14.50
2008,02,05,11,04,6.40
2008,02,05,11,05,14.50
2008,02,05,11,06,9.60
2008,02,05,11,07,8.10
2008,02,05,11,08,8.10
2008,02,05,11,09,8.10
2008,02,05,11,10,16.10
2008,02,05,11,11,16.10
2008,02,05,11,12,14.50
2008,02,05,11,13,16.10
2008,02,05,11,14,11.30
2008,02,05,11,15,14.50
2008,02,05,11,16,6.40
2008,02,05,11,17,6.40
2008,02,05,11,18,6.40
2008,02,05,11,19,12.90
2008,02,05,11,20,9.60
2008,02,05,11,21,8.10
2008,02,05,11,22,4.80
2008,02,05,11,23,8.10
2008,02,05,11,24,12.90
2008,02,05,11,25,6.40
2008,02,05,11,26,9.60
2008,02,05,11,27,9.60
2008,02,05,11,28,8.10
2008,02,05,11,29,8.10
2008,02,05,11,30,11.30
2008,02,05,11,31,11.30
2008,02,05,11,32,9.60
2008,02,05,11,33,6.40
2008,02,05,11,34,9.60
2008,02,05,11,35,9.60
2008,02,05,11,36,9.60
2008,02,05,11,37,9.60
2008,02,05,11,38,8.10
2008,02,05,11,39,9.60
2008,02,05,11,40,14.50
2008,02,05,11,41,16.10
2008,02,05,11,42,6.40
2008,02,05,11,43,11.30
2008,02,05,11,44,9.60
2008,02,05,11,45,9.60
2008,02,05,11,46,14.50
2008,02,05,11,47,16.10
2008,02,05,11,48,14.50
2008,02,05,11,49,14.50
2008,02,05,11,50,20.90
2008,02,05,11,51,17.70
2008,02,05,11,52,9.60
2008,02,05,11,53,16.10
2008,02,05,11,54,14.50
2008,02,05,11,55,9.60
2008,02,05,11,56,12.90
2008,02,05,11,57,6.40
2008,02,05,11,58,9.60
2008,02,05,11,59,11.30
2008,02,05,12,00,11.30
2008,02,05,12,01,14.50
2008,02,05,12,02,16.10
2008,02,05,12,03,14.50
2008,02,05,12,04,14.50
2008,02,05,12,05,19.30
2008,02,05,12,06,19.30
2008,02,05,12,07,16.10
2008,02,05,12,08,17.70
2008,02,05,12,09,22.50
2008,02,05,12,10,14.50
2008,02,05,12,11,16.10
2008,02,05,12,12,16.10
2008,02,05,12,13,16.10
2008,02,05,12,14,11.30
2008,02,05,12,15,27.40
2008,02,05,12,16,17.70
2008,02,05,12,17,17.70
2008,02,05,12,18,16.10
2008,02,05,12,19,9.60
2008,02,05,12,20,17.70
2008,02,05,12,21,16.10
2008,02,05,12,22,19.30
2008,02,05,12,23,19.30
2008,02,05,12,24,11.30
2008,02,05,12,25,16.10
2008,02,05,12,26,16.10
2008,02,05,12,27,14.50
2008,02,05,12,28,14.50
2008,02,05,12,29,14.50
2008,02,05,12,30,16.10
2008,02,05,12,31,14.50
2008,02,05,12,32,12.90
2008,02,05,12,33,12.90
2008,02,05,12,34,17.70
2008,02,05,12,35,19.30
2008,02,05,12,36,14.50
2008,02,05,12,37,14.50
2008,02,05,12,38,8.10
2008,02,05,12,39,16.10
2008,02,05,12,40,14.50
2008,02,05,12,41,4.80
2008,02,05,12,42,4.80
2008,02,05,12,43,8.10
2008,02,05,12,44,6.40
2008,02,05,12,45,8.10
2008,02,05,12,46,11.30
2008,02,05,12,47,9.60
2008,02,05,12,48,11.30
2008,02,05,12,49,11.30
2008,02,05,12,50,12.90
2008,02,05,12,51,11.30
2008,02,05,12,52,14.50
2008,02,05,12,53,8.10
2008,02,05,12,54,11.30
2008,02,05,12,55,19.30
2008,02,05,12,56,14.50
2008,02,05,12,57,16.10
2008,02,05,12,58,17.70
2008,02,05,12,59,19.30
2008,02,05,13,00,16.10
2008,02,05,13,01,19.30
2008,02,05,13,02,14.50
2008,02,05,13,03,17.70
2008,02,05,13,04,29.00
2008,02,05,13,05,16.10
2008,02,05,13,06,14.50
2008,02,05,13,07,14.50
2008,02,05,13,08,16.10
2008,02,05,13,09,22.50
2008,02,05,13,10,22.50
2008,02,05,13,11,9.60
2008,02,05,13,12,11.30
2008,02,05,13,13,9.60
2008,02,05,13,14,16.10
2008,02,05,13,15,17.70
2008,02,05,13,16,11.30
2008,02,05,13,17,14.50
2008,02,05,13,18,12.90
2008,02,05,13,19,11.30
2008,02,05,13,20,14.50
2008,02,05,13,21,17.70
2008,02,05,13,22,16.10
2008,02,05,13,23,20.90
2008,02,05,13,24,11.30
2008,02,05,13,25,16.10
2008,02,05,13,26,14.50
2008,02,05,13,27,12.90
2008,02,05,13,28,17.70
2008,02,05,13,29,16.10
2008,02,05,13,30,8.10
2008,02,05,13,31,17.70
2008,02,05,13,32,22.50
2008,02,05,13,33,20.90
2008,02,05,13,34,11.30
2008,02,05,13,35,17.70
2008,02,05,13,36,25.70
2008,02,05,13,37,22.50
2008,02,05,13,38,19.30
2008,02,05,13,39,24.20
2008,02,05,13,40,17.70
2008,02,05,13,41,22.50
2008,02,05,13,42,16.10
2008,02,05,13,43,14.50
2008,02,05,13,44,11.30
2008,02,05,13,45,16.10
2008,02,05,13,46,17.70
2008,02,05,13,47,17.70
2008,02,05,13,48,17.70
2008,02,05,13,49,14.50
2008,02,05,13,50,14.50
2008,02,05,13,51,16.10
2008,02,05,13,52,14.50
2008,02,05,13,53,11.30
2008,02,05,13,54,14.50
2008,02,05,13,55,9.60
2008,02,05,13,56,8.10
2008,02,05,13,57,11.30
2008,02,05,13,58,9.60
2008,02,05,13,59,11.30
2008,02,05,14,00,20.90
2008,02,05,14,01,17.70
2008,02,05,14,02,14.50
2008,02,05,14,03,11.30
2008,02,05,14,04,22.50
2008,02,05,14,05,17.70
2008,02,05,14,06,11.30
2008,02,05,14,07,16.10
2008,02,05,14,08,14.50
2008,02,05,14,09,22.50
2008,02,05,14,10,19.30
2008,02,05,14,11,20.90
2008,02,05,14,12,14.50
2008,02,05,14,13,17.70
2008,02,05,14,14,24.20
2008,02,05,14,15,25.70
2008,02,05,14,16,16.10
2008,02,05,14,17,17.70
2008,02,05,14,18,37.00
2008,02,05,14,19,29.00
2008,02,05,14,20,29.00
2008,02,05,14,21,17.70
2008,02,05,14,22,22.50
2008,02,05,14,23,24.20
2008,02,05,14,24,22.50
2008,02,05,14,25,22.50
2008,02,05,14,26,40.20
2008,02,05,14,27,29.00
2008,02,05,14,28,29.00
2008,02,05,14,29,40.20
2008,02,05,14,30,38.60
2008,02,05,14,31,30.60
2008,02,05,14,32,32.20
2008,02,05,14,33,29.00
2008,02,05,14,34,41.80
2008,02,05,14,35,45.10
2008,02,05,14,36,49.90
2008,02,05,14,37,46.70
2008,02,05,14,38,32.20
2008,02,05,14,39,46.70
2008,02,05,14,40,49.90
2008,02,05,14,41,48.30
2008,02,05,14,42,35.40
2008,02,05,14,43,24.20
2008,02,05,14,44,20.90
2008,02,05,14,45,37.00
2008,02,05,14,46,22.50
2008,02,05,14,47,29.00
2008,02,05,14,48,24.20
2008,02,05,14,49,45.10
2008,02,05,14,50,43.50
2008,02,05,14,51,30.60
2008,02,05,14,52,40.20
2008,02,05,14,53,35.40
2008,02,05,14,54,33.80
2008,02,05,14,55,30.60
2008,02,05,14,56,35.40
2008,02,05,14,57,53.10
2008,02,05,14,58,45.10
2008,02,05,14,59,35.40
2008,02,05,15,00,43.50
2008,02,05,15,01,54.70
2008,02,05,15,02,30.60
2008,02,05,15,03,53.10
2008,02,05,15,04,30.60
2008,02,05,15,05,46.70
2008,02,05,15,06,48.30
2008,02,05,15,07,57.90
2008,02,05,15,08,41.80
2008,02,05,15,09,38.60
2008,02,05,15,10,37.00
2008,02,05,15,11,48.30
2008,02,05,15,12,25.70
2008,02,05,15,13,46.70
2008,02,05,15,14,41.80
2008,02,05,15,15,40.20
2008,02,05,15,16,33.80
2008,02,05,15,17,40.20
2008,02,05,15,18,30.60
2008,02,05,15,19,37.00
2008,02,05,15,20,30.60
2008,02,05,15,21,32.20
2008,02,05,15,22,25.70
2008,02,05,15,23,33.80
2008,02,05,15,24,37.00
2008,02,05,15,25,33.80
2008,02,05,15,26,30.60
2008,02,05,15,27,38.60
2008,02,05,15,28,43.50
2008,02,05,15,29,30.60
2008,02,05,15,30,46.70
2008,02,05,15,31,33.80
2008,02,05,15,32,29.00
2008,02,05,15,33,43.50
2008,02,05,15,34,35.40
2008,02,05,15,35,33.80
2008,02,05,15,36,35.40
2008,02,05,15,37,37.00
2008,02,05,15,38,35.40
2008,02,05,15,39,57.90
2008,02,05,15,40,40.20
2008,02,05,15,41,25.70
2008,02,05,15,42,25.70
2008,02,05,15,43,27.40
2008,02,05,15,44,22.50
2008,02,05,15,45,22.50
2008,02,05,15,46,29.00
2008,02,05,15,47,30.60
2008,02,05,15,48,17.70
2008,02,05,15,49,29.00
2008,02,05,15,50,19.30
2008,02,05,15,51,29.00
2008,02,05,15,52,27.40
2008,02,05,15,53,22.50
2008,02,05,15,54,38.60
2008,02,05,15,55,27.40
2008,02,05,15,56,24.20
2008,02,05,15,57,11.30
2008,02,05,15,58,20.90
2008,02,05,15,59,25.70
2008,02,05,16,00,27.40
2008,02,05,16,01,29.00
2008,02,05,16,02,16.10
2008,02,05,16,03,24.20
2008,02,05,16,04,41.80
2008,02,05,16,05,35.40
2008,02,05,16,06,27.40
2008,02,05,16,07,35.40
2008,02,05,16,08,33.80
2008,02,05,16,09,43.50
2008,02,05,16,10,32.20
2008,02,05,16,11,17.70
2008,02,05,16,12,29.00
2008,02,05,16,13,37.00
2008,02,05,16,14,37.00
2008,02,05,16,15,38.60
2008,02,05,16,16,40.20
2008,02,05,16,17,38.60
2008,02,05,16,18,41.80
2008,02,05,16,19,27.40
2008,02,05,16,20,38.60
2008,02,05,16,21,20.90
2008,02,05,16,22,29.00
2008,02,05,16,23,29.00
2008,02,05,16,24,11.30
2008,02,05,16,25,19.30
2008,02,05,16,26,20.90
2008,02,05,16,27,35.40
2008,02,05,16,28,24.20
2008,02,05,16,29,37.00
2008,02,05,16,30,43.50
2008,02,05,16,31,35.40
2008,02,05,16,32,25.70
2008,02,05,16,33,25.70
2008,02,05,16,34,25.70
2008,02,05,16,35,17.70
2008,02,05,16,36,22.50
2008,02,05,16,37,32.20
2008,02,05,16,38,35.40
2008,02,05,16,39,30.60
2008,02,05,16,40,25.70
2008,02,05,16,41,33.80
2008,02,05,16,42,25.70
2008,02,05,16,43,35.40
2008,02,05,16,44,27.40
2008,02,05,16,45,29.00
2008,02,05,16,46,25.70
2008,02,05,16,47,25.70
2008,02,05,16,48,22.50
2008,02,05,16,49,24.20
2008,02,05,16,50,25.70
2008,02,05,16,51,20.90
2008,02,05,16,52,25.70
2008,02,05,16,53,24.20
2008,02,05,16,54,30.60
2008,02,05,16,55,32.20
2008,02,05,16,56,25.70
2008,02,05,16,57,25.70
2008,02,05,16,58,12.90
2008,02,05,16,59,33.80
2008,02,05,17,00,33.80
2008,02,05,17,01,25.70
2008,02,05,17,02,19.30
2008,02,05,17,03,16.10
2008,02,05,17,04,14.50
2008,02,05,17,05,19.30
2008,02,05,17,06,16.10
2008,02,05,17,07,20.90
2008,02,05,17,08,24.20
2008,02,05,17,09,38.60
2008,02,05,17,10,24.20
2008,02,05,17,11,22.50
2008,02,05,17,12,27.40
2008,02,05,17,13,24.20
2008,02,05,17,14,22.50
2008,02,05,17,15,19.30
2008,02,05,17,16,16.10
2008,02,05,17,17,22.50
2008,02,05,17,18,20.90
2008,02,05,17,19,17.70
2008,02,05,17,20,14.50
2008,02,05,17,21,20.90
2008,02,05,17,22,17.70